TUI2EM EDDV-LGKO

Flight info

Callsign TUI2EM
Flight time N/A
Altitude 37000
Route CEL7Y CEL Q282 DIRBO Z990 HLZ M852 POVEL Y800 TADUV Z21 RIVSA DCT OMELO DCT VLM DCT NAVTI DCT BEGLA DCT SVR DCT BABIT DCT TADAM DCT RISTU DCT SOSEK DCT GINAM DCT IBISI DCT SIN DCT RUGAS UN128 FSK DCT GIKAS DCT MES UN139 LURUS L995 KOPAR
Aircraft B738/M-SDE2E3FGHIRWXY/LB1

Departure

Time N/A
Airport Hannover Airport (EDDV)

Arrival

Time 2026-05-08 17:36
Airport Kos International Airport "Ippokratis" (LGKO)
Time Latitude Longitude Altitude Speed Heading
2026-05-08 15:21 50.62712 14.20355 37128 ft 469 kts 152°
2026-05-08 15:21 50.59918 14.23023 37140 ft 469 kts 152°
2026-05-08 15:22 50.54341 14.28348 37134 ft 469 kts 152°
2026-05-08 15:22 50.48759 14.33663 37131 ft 469 kts 152°
2026-05-08 15:23 50.44122 14.38065 37112 ft 468 kts 152°
2026-05-08 15:23 50.38546 14.43344 37121 ft 468 kts 152°
2026-05-08 15:24 50.32969 14.48608 37115 ft 467 kts 152°
2026-05-08 15:24 50.27405 14.53847 37130 ft 466 kts 152°
2026-05-08 15:25 50.21874 14.59039 37129 ft 466 kts 152°
2026-05-08 15:25 50.16310 14.64248 37130 ft 466 kts 152°
2026-05-08 15:26 50.10748 14.69441 37131 ft 466 kts 152°
2026-05-08 15:26 50.05187 14.74619 37130 ft 466 kts 152°
2026-05-08 15:27 49.99611 14.79797 37120 ft 466 kts 152°
2026-05-08 15:27 49.94043 14.84953 37124 ft 466 kts 152°
2026-05-08 15:28 49.88498 14.90075 37112 ft 467 kts 152°
2026-05-08 15:28 49.82917 14.95217 37119 ft 467 kts 152°
2026-05-08 15:29 49.77327 15.00353 37115 ft 467 kts 152°
2026-05-08 15:29 49.71738 15.05474 37109 ft 467 kts 152°
2026-05-08 15:30 49.66422 15.11323 37119 ft 470 kts 144°
2026-05-08 15:30 49.61394 15.17724 37104 ft 471 kts 144°
2026-05-08 15:31 49.56333 15.24154 37114 ft 471 kts 144°
2026-05-08 15:31 49.51241 15.30506 37113 ft 471 kts 144°
2026-05-08 15:32 49.46122 15.36827 37103 ft 472 kts 145°
2026-05-08 15:32 49.41001 15.43126 37101 ft 472 kts 145°
2026-05-08 15:33 49.35875 15.49417 37081 ft 472 kts 146°
2026-05-08 15:33 49.30742 15.55702 37084 ft 472 kts 146°
2026-05-08 15:34 49.25640 15.61932 37101 ft 472 kts 146°
2026-05-08 15:34 49.20503 15.68188 37089 ft 472 kts 146°
2026-05-08 15:35 49.15352 15.74444 37094 ft 472 kts 146°
2026-05-08 15:35 49.10198 15.80686 37082 ft 473 kts 146°
2026-05-08 15:36 49.05049 15.86907 37091 ft 472 kts 146°
2026-05-08 15:36 48.99889 15.93122 37087 ft 473 kts 146°
2026-05-08 15:37 48.94720 15.99332 37091 ft 473 kts 146°
2026-05-08 15:37 48.89585 16.05486 37085 ft 472 kts 147°
2026-05-08 15:38 48.84423 16.11655 37087 ft 472 kts 147°
2026-05-08 15:38 48.79260 16.17810 37075 ft 472 kts 147°
2026-05-08 15:39 48.74002 16.23700 37081 ft 468 kts 151°
2026-05-08 15:39 48.68534 16.29037 37078 ft 466 kts 153°
2026-05-08 15:40 48.63055 16.34298 37075 ft 466 kts 153°
2026-05-08 15:40 48.57596 16.39604 37078 ft 466 kts 152°
2026-05-08 15:41 48.52192 16.44893 37073 ft 466 kts 152°
2026-05-08 15:41 48.46745 16.50219 37073 ft 465 kts 152°
2026-05-08 15:42 48.41317 16.55511 37063 ft 465 kts 152°
2026-05-08 15:42 48.35879 16.60797 37054 ft 464 kts 152°
2026-05-08 15:43 48.30449 16.66060 37042 ft 464 kts 152°
2026-05-08 15:43 48.25028 16.71301 37050 ft 464 kts 152°
2026-05-08 15:44 48.19632 16.76505 37053 ft 464 kts 152°
2026-05-08 15:44 48.14189 16.81741 37054 ft 464 kts 152°
2026-05-08 15:45 48.08837 16.86876 37054 ft 465 kts 152°
2026-05-08 15:45 48.03684 16.91809 37041 ft 465 kts 152°
2026-05-08 15:46 47.98227 16.97020 37054 ft 465 kts 153°
2026-05-08 15:46 47.92772 17.02216 37059 ft 465 kts 153°
2026-05-08 15:47 47.87343 17.07376 37065 ft 466 kts 153°
2026-05-08 15:47 47.81879 17.12571 37049 ft 466 kts 152°
2026-05-08 15:48 47.73843 17.20767 37063 ft 467 kts 150°
2026-05-08 15:49 47.68509 17.26269 37051 ft 467 kts 150°
2026-05-08 15:49 47.63161 17.31729 37054 ft 466 kts 151°
2026-05-08 15:50 47.57797 17.37168 37055 ft 466 kts 151°
2026-05-08 15:50 47.52437 17.42586 37043 ft 466 kts 151°
2026-05-08 15:51 47.47077 17.47992 37051 ft 466 kts 151°
2026-05-08 15:51 47.41720 17.53381 37047 ft 467 kts 151°
2026-05-08 15:52 47.36381 17.58740 37051 ft 467 kts 151°
2026-05-08 15:52 47.31007 17.64121 37050 ft 467 kts 151°
2026-05-08 15:53 47.25619 17.69501 37036 ft 467 kts 151°
2026-05-08 15:53 47.20237 17.74863 37048 ft 467 kts 151°
2026-05-08 15:54 47.14863 17.80203 37056 ft 467 kts 151°
2026-05-08 15:54 47.09469 17.85550 37041 ft 468 kts 151°
2026-05-08 15:55 47.04103 17.90856 37039 ft 468 kts 151°
2026-05-08 15:55 46.96000 17.98846 37031 ft 467 kts 151°
2026-05-08 15:56 46.90603 18.04150 37030 ft 467 kts 151°
2026-05-08 15:56 46.85209 18.09440 37032 ft 467 kts 151°
2026-05-08 15:57 46.79801 18.14651 37027 ft 465 kts 152°
2026-05-08 15:57 46.74312 18.19682 37015 ft 464 kts 153°
2026-05-08 15:58 46.68824 18.24672 37025 ft 463 kts 153°
2026-05-08 15:58 46.63395 18.29626 37020 ft 463 kts 153°
2026-05-08 15:59 46.57932 18.34619 37022 ft 462 kts 153°
2026-05-08 15:59 46.52520 18.39555 37029 ft 461 kts 153°
2026-05-08 16:00 46.47089 18.44496 37014 ft 460 kts 153°
2026-05-08 16:00 46.41664 18.49421 37032 ft 460 kts 153°
2026-05-08 16:01 46.36234 18.54337 37024 ft 460 kts 153°
2026-05-08 16:01 46.30792 18.59251 37027 ft 462 kts 153°
2026-05-08 16:02 46.25342 18.64163 37009 ft 461 kts 153°
2026-05-08 16:02 46.19936 18.69024 37007 ft 460 kts 153°
2026-05-08 16:03 46.14503 18.73898 37012 ft 459 kts 153°
2026-05-08 16:03 46.09080 18.78751 37019 ft 458 kts 153°
2026-05-08 16:04 46.03667 18.83583 37015 ft 457 kts 153°
2026-05-08 16:04 45.98255 18.88405 37011 ft 457 kts 153°
2026-05-08 16:05 45.92860 18.93200 37008 ft 456 kts 153°
2026-05-08 16:05 45.87488 18.98067 37012 ft 456 kts 152°
2026-05-08 16:06 45.82142 19.02957 37014 ft 456 kts 152°
2026-05-08 16:06 45.76824 19.07804 37003 ft 455 kts 152°
2026-05-08 16:07 45.71471 19.12660 37011 ft 455 kts 152°
2026-05-08 16:07 45.66129 19.17491 37006 ft 454 kts 152°
2026-05-08 16:08 45.60777 19.22321 37011 ft 454 kts 152°
2026-05-08 16:08 45.55428 19.27137 37007 ft 455 kts 152°
2026-05-08 16:09 45.50971 19.31141 36999 ft 455 kts 152°
2026-05-08 16:09 45.44745 19.36723 37014 ft 455 kts 152°
2026-05-08 16:10 45.39376 19.41525 37003 ft 455 kts 152°
2026-05-08 16:10 45.34008 19.46315 37020 ft 456 kts 152°
2026-05-08 16:11 45.28623 19.51111 36997 ft 457 kts 152°
2026-05-08 16:11 45.24139 19.55099 36996 ft 456 kts 151°
2026-05-08 16:12 45.18886 19.60182 36995 ft 457 kts 148°
2026-05-08 16:12 45.13705 19.65411 37000 ft 457 kts 148°
2026-05-08 16:13 45.08510 19.70594 36997 ft 456 kts 149°
2026-05-08 16:13 45.03299 19.75732 36997 ft 456 kts 149°
2026-05-08 16:14 44.98126 19.80808 36996 ft 455 kts 149°
2026-05-08 16:14 44.92914 19.85912 36984 ft 455 kts 149°
2026-05-08 16:15 44.87711 19.90999 36999 ft 455 kts 149°
2026-05-08 16:15 44.82499 19.96083 36997 ft 455 kts 149°
2026-05-08 16:16 44.77291 20.01154 36993 ft 455 kts 149°
2026-05-08 16:16 44.72075 20.06216 36997 ft 455 kts 149°
2026-05-08 16:17 44.66891 20.11235 36993 ft 455 kts 149°
2026-05-08 16:17 44.61673 20.16278 36994 ft 456 kts 149°
2026-05-08 16:18 44.56435 20.21330 36997 ft 457 kts 149°
2026-05-08 16:18 44.51194 20.26375 36992 ft 457 kts 149°
2026-05-08 16:19 44.45944 20.31418 36985 ft 457 kts 149°
2026-05-08 16:19 44.40692 20.36451 37000 ft 458 kts 149°
2026-05-08 16:20 44.35426 20.41486 36998 ft 458 kts 149°
2026-05-08 16:20 44.30190 20.46481 36993 ft 459 kts 149°
2026-05-08 16:21 44.24981 20.51440 37001 ft 459 kts 149°
2026-05-08 16:21 44.19694 20.56463 36995 ft 460 kts 149°
2026-05-08 16:22 44.14400 20.61481 36997 ft 460 kts 149°
2026-05-08 16:22 44.09098 20.66495 36998 ft 460 kts 149°
2026-05-08 16:23 44.03801 20.71494 36995 ft 460 kts 149°
2026-05-08 16:23 43.98497 20.76488 36998 ft 461 kts 149°
2026-05-08 16:24 43.93217 20.81449 37003 ft 461 kts 149°
2026-05-08 16:24 43.87897 20.86437 37004 ft 461 kts 149°
2026-05-08 16:25 43.82571 20.91422 37011 ft 461 kts 149°
2026-05-08 16:25 43.77240 20.96393 37002 ft 461 kts 149°
2026-05-08 16:26 43.71877 21.01226 37009 ft 460 kts 150°
2026-05-08 16:26 43.66498 21.06005 37019 ft 460 kts 150°
2026-05-08 16:27 43.61143 21.10771 37008 ft 460 kts 150°
2026-05-08 16:27 43.55765 21.15562 37013 ft 460 kts 150°
2026-05-08 16:28 43.50384 21.20349 37019 ft 460 kts 150°
2026-05-08 16:28 43.45009 21.25120 37021 ft 461 kts 150°
2026-05-08 16:29 43.39611 21.29902 37025 ft 461 kts 150°
2026-05-08 16:29 43.34212 21.34675 37028 ft 461 kts 150°
2026-05-08 16:30 43.28837 21.39416 37028 ft 462 kts 150°
2026-05-08 16:30 43.23418 21.44191 37038 ft 463 kts 150°
2026-05-08 16:31 43.17984 21.48973 37045 ft 464 kts 150°
2026-05-08 16:31 43.12541 21.53754 37030 ft 464 kts 150°
2026-05-08 16:32 43.07098 21.58525 37030 ft 464 kts 150°
2026-05-08 16:32 43.01696 21.63252 37030 ft 463 kts 150°
2026-05-08 16:33 42.96265 21.67991 37033 ft 463 kts 150°
2026-05-08 16:33 42.90653 21.72270 37042 ft 461 kts 155°
2026-05-08 16:34 42.84930 21.76211 37027 ft 461 kts 155°
2026-05-08 16:34 42.79199 21.80169 37028 ft 462 kts 155°
2026-05-08 16:35 42.73516 21.84151 37040 ft 463 kts 155°
2026-05-08 16:35 42.67777 21.88193 37031 ft 464 kts 155°
2026-05-08 16:36 42.62031 21.92234 37035 ft 465 kts 155°
2026-05-08 16:36 42.56273 21.96273 37045 ft 466 kts 155°
2026-05-08 16:37 42.50500 22.00312 37043 ft 467 kts 155°
2026-05-08 16:37 42.44723 22.04345 37030 ft 467 kts 155°
2026-05-08 16:38 42.38958 22.08362 37033 ft 466 kts 155°
2026-05-08 16:38 42.33232 22.12343 37032 ft 465 kts 155°
2026-05-08 16:39 42.27486 22.16331 37039 ft 464 kts 155°
2026-05-08 16:39 42.21733 22.20314 37027 ft 464 kts 155°
2026-05-08 16:40 42.15992 22.24281 37036 ft 463 kts 155°
2026-05-08 16:40 42.10247 22.28244 37044 ft 464 kts 155°
2026-05-08 16:41 42.04490 22.32208 37050 ft 466 kts 155°
2026-05-08 16:42 41.95817 22.38140 37037 ft 466 kts 155°
2026-05-08 16:42 41.89999 22.41964 37046 ft 465 kts 156°
2026-05-08 16:43 41.84205 22.45739 37033 ft 465 kts 156°
2026-05-08 16:43 41.78384 22.49542 37060 ft 465 kts 156°
2026-05-08 16:44 41.72561 22.53350 37051 ft 466 kts 156°
2026-05-08 16:44 41.66731 22.57158 37063 ft 466 kts 156°
2026-05-08 16:45 41.60883 22.60968 37061 ft 467 kts 156°
2026-05-08 16:45 41.55047 22.64763 37056 ft 467 kts 156°
2026-05-08 16:46 41.49233 22.68536 37062 ft 467 kts 156°
2026-05-08 16:46 41.43385 22.72324 37067 ft 467 kts 156°
2026-05-08 16:47 41.37525 22.76113 37070 ft 468 kts 156°
2026-05-08 16:47 41.31700 22.79997 37061 ft 469 kts 151°
2026-05-08 16:48 41.26224 22.84750 37066 ft 471 kts 148°
2026-05-08 16:48 41.20795 22.89622 37063 ft 471 kts 149°
2026-05-08 16:49 41.15324 22.94403 37070 ft 471 kts 149°
2026-05-08 16:49 41.09848 22.99155 37072 ft 471 kts 148°
2026-05-08 16:50 41.04651 23.04494 37068 ft 473 kts 143°
2026-05-08 16:50 40.99589 23.10086 37075 ft 474 kts 142°
2026-05-08 16:51 40.94500 23.15666 37068 ft 475 kts 143°
2026-05-08 16:51 40.89384 23.21192 37085 ft 475 kts 143°
2026-05-08 16:52 40.84274 23.26666 37078 ft 476 kts 143°
2026-05-08 16:52 40.79118 23.32176 37055 ft 477 kts 144°
2026-05-08 16:53 40.71364 23.40445 37077 ft 477 kts 144°
2026-05-08 16:53 40.66223 23.45915 37066 ft 477 kts 144°
2026-05-08 16:54 40.61058 23.51398 37078 ft 477 kts 144°
2026-05-08 16:54 40.55888 23.56877 37065 ft 478 kts 144°
2026-05-08 16:55 40.50713 23.62350 37059 ft 477 kts 145°
2026-05-08 16:55 40.45532 23.67817 37076 ft 477 kts 145°
2026-05-08 16:56 40.40360 23.73263 37067 ft 477 kts 145°
2026-05-08 16:56 40.35186 23.78702 37067 ft 477 kts 145°
2026-05-08 16:57 40.29994 23.84147 37075 ft 477 kts 145°
2026-05-08 16:57 40.24814 23.89569 37074 ft 477 kts 145°
2026-05-08 16:58 40.20491 23.94086 37071 ft 478 kts 145°
2026-05-08 16:58 40.14455 24.00380 37071 ft 478 kts 145°
2026-05-08 16:59 40.09250 24.05796 37066 ft 478 kts 145°
2026-05-08 16:59 40.04040 24.11206 37063 ft 478 kts 146°
2026-05-08 17:00 39.99673 24.15733 37044 ft 479 kts 146°
2026-05-08 17:00 39.94456 24.21130 37067 ft 479 kts 146°
2026-05-08 17:01 39.89259 24.26496 37063 ft 480 kts 146°
2026-05-08 17:01 39.84021 24.31893 37063 ft 481 kts 146°
2026-05-08 17:02 39.78763 24.37300 37059 ft 481 kts 146°
2026-05-08 17:02 39.73501 24.42702 37035 ft 481 kts 147°
2026-05-08 17:03 39.68229 24.48102 37054 ft 482 kts 147°
2026-05-08 17:03 39.62987 24.53461 37059 ft 483 kts 147°
2026-05-08 17:04 39.57703 24.58854 37056 ft 484 kts 147°
2026-05-08 17:04 39.52408 24.64249 37055 ft 484 kts 147°
2026-05-08 17:05 39.47101 24.69638 37025 ft 485 kts 148°
2026-05-08 17:05 39.41787 24.75020 37044 ft 485 kts 148°
2026-05-08 17:06 39.36456 24.80409 37055 ft 486 kts 148°
2026-05-08 17:06 39.31121 24.85794 37064 ft 487 kts 148°
2026-05-08 17:07 39.25778 24.91179 37055 ft 487 kts 148°
2026-05-08 17:07 39.20457 24.96531 37040 ft 488 kts 148°
2026-05-08 17:08 39.15099 25.01909 37025 ft 488 kts 148°
2026-05-08 17:08 39.09751 25.07267 37049 ft 487 kts 148°
2026-05-08 17:09 39.04409 25.12608 37055 ft 486 kts 148°
2026-05-08 17:09 38.99056 25.17948 37062 ft 486 kts 148°
2026-05-08 17:10 38.93704 25.23278 37039 ft 486 kts 148°
2026-05-08 17:10 38.88356 25.28593 37055 ft 485 kts 148°
2026-05-08 17:11 38.83018 25.33888 37046 ft 485 kts 148°
2026-05-08 17:11 38.77667 25.39185 37069 ft 485 kts 148°
2026-05-08 17:12 38.72356 25.44433 37070 ft 485 kts 148°
2026-05-08 17:12 38.66976 25.49738 37035 ft 485 kts 148°
2026-05-08 17:13 38.61661 25.54969 37069 ft 485 kts 148°
2026-05-08 17:13 38.56302 25.60234 37082 ft 486 kts 148°
2026-05-08 17:14 38.50930 25.65500 37063 ft 487 kts 148°
2026-05-08 17:14 38.45542 25.70775 37079 ft 487 kts 148°
2026-05-08 17:15 38.40161 25.76032 37080 ft 487 kts 148°
2026-05-08 17:15 38.34773 25.81286 37080 ft 487 kts 148°
2026-05-08 17:16 38.29389 25.86527 37083 ft 487 kts 148°
2026-05-08 17:16 38.23824 25.91270 36688 ft 482 kts 161°
2026-05-08 17:17 38.20743 25.92819 36178 ft 472 kts 168°
2026-05-08 17:17 38.17643 25.94174 35501 ft 472 kts 168°
2026-05-08 17:17 38.14528 25.95524 34832 ft 473 kts 168°
2026-05-08 17:17 38.11410 25.96890 34135 ft 474 kts 168°
2026-05-08 17:18 38.08302 25.98334 33342 ft 479 kts 163°
2026-05-08 17:18 38.05310 26.00287 32480 ft 489 kts 156°
2026-05-08 17:18 38.02363 26.02498 31605 ft 493 kts 155°
2026-05-08 17:18 37.99421 26.04771 30709 ft 497 kts 154°
2026-05-08 17:19 37.96459 26.07065 29757 ft 501 kts 154°
2026-05-08 17:19 37.93474 26.09357 28717 ft 502 kts 154°
2026-05-08 17:19 37.90471 26.11639 27727 ft 502 kts 155°
2026-05-08 17:19 37.87471 26.13896 26768 ft 502 kts 154°
2026-05-08 17:20 37.84481 26.16132 26054 ft 496 kts 154°
2026-05-08 17:20 37.81529 26.18333 25472 ft 488 kts 154°
2026-05-08 17:20 37.78625 26.20495 24984 ft 478 kts 154°
2026-05-08 17:20 37.75783 26.22608 24522 ft 470 kts 154°
2026-05-08 17:21 37.72991 26.24680 24059 ft 461 kts 154°
2026-05-08 17:21 37.70276 26.26694 23592 ft 454 kts 154°
2026-05-08 17:21 37.67536 26.28723 23049 ft 447 kts 154°
2026-05-08 17:21 37.64905 26.30670 22534 ft 441 kts 154°
2026-05-08 17:22 37.62277 26.32613 22008 ft 433 kts 154°
2026-05-08 17:22 37.59707 26.34514 21497 ft 423 kts 154°
2026-05-08 17:22 37.57200 26.36367 20995 ft 414 kts 154°
2026-05-08 17:22 37.54737 26.38186 20503 ft 406 kts 154°
2026-05-08 17:23 37.52318 26.39970 20018 ft 399 kts 154°
2026-05-08 17:23 37.49934 26.41726 19542 ft 393 kts 154°
2026-05-08 17:23 37.47590 26.43451 19069 ft 387 kts 154°
2026-05-08 17:23 37.45279 26.45151 18609 ft 382 kts 154°
2026-05-08 17:24 37.42996 26.46829 18122 ft 378 kts 154°
2026-05-08 17:24 37.40736 26.48489 17598 ft 373 kts 154°
2026-05-08 17:24 37.38530 26.50109 17090 ft 369 kts 154°
2026-05-08 17:24 37.36321 26.51729 16577 ft 366 kts 154°
2026-05-08 17:25 37.34134 26.53334 16077 ft 362 kts 154°
2026-05-08 17:25 37.31965 26.54923 15582 ft 359 kts 154°
2026-05-08 17:25 37.29814 26.56498 15105 ft 356 kts 154°
2026-05-08 17:25 37.27663 26.58071 14473 ft 356 kts 153°
2026-05-08 17:26 37.25521 26.59637 13872 ft 356 kts 153°
2026-05-08 17:26 37.23378 26.61203 13195 ft 355 kts 153°
2026-05-08 17:26 37.21245 26.62761 12536 ft 354 kts 153°
2026-05-08 17:26 37.19118 26.64314 11890 ft 353 kts 153°
2026-05-08 17:27 37.16993 26.65864 11255 ft 352 kts 153°
2026-05-08 17:27 37.14912 26.67382 10643 ft 351 kts 154°
2026-05-08 17:27 37.12806 26.68917 10029 ft 350 kts 154°
2026-05-08 17:27 37.10707 26.70445 9366 ft 348 kts 153°
2026-05-08 17:28 37.08620 26.71965 8698 ft 346 kts 153°
2026-05-08 17:28 37.06541 26.73478 8058 ft 344 kts 153°
2026-05-08 17:28 37.04483 26.74975 7432 ft 341 kts 152°
2026-05-08 17:28 37.02448 26.76455 6817 ft 337 kts 152°
2026-05-08 17:29 37.00423 26.77926 6186 ft 334 kts 152°
2026-05-08 17:29 36.98424 26.79375 5549 ft 330 kts 152°
2026-05-08 17:29 36.96459 26.80803 5068 ft 321 kts 150°
2026-05-08 17:29 36.94805 26.82623 4562 ft 318 kts 127°
2026-05-08 17:30 36.93926 26.85113 4104 ft 313 kts 103°
2026-05-08 17:30 36.93879 26.87792 3662 ft 308 kts 82°
2026-05-08 17:30 36.94538 26.90257 3525 ft 292 kts 63°
2026-05-08 17:30 36.95308 26.92494 3492 ft 270 kts 83°
2026-05-08 17:31 36.95209 26.94713 3489 ft 246 kts 109°
2026-05-08 17:31 36.94540 26.96542 3478 ft 220 kts 124°
2026-05-08 17:31 36.93614 26.97964 3339 ft 204 kts 139°
2026-05-08 17:31 36.92587 26.99071 3150 ft 192 kts 142°
2026-05-08 17:32 36.91548 27.00083 2859 ft 187 kts 144°
2026-05-08 17:32 36.90484 27.01033 2470 ft 187 kts 146°
2026-05-08 17:32 36.89399 27.01767 2316 ft 167 kts 156°
2026-05-08 17:32 36.88362 27.02408 1912 ft 165 kts 154°
2026-05-08 17:33 36.87409 27.03057 1839 ft 141 kts 152°
2026-05-08 17:33 36.86588 27.03714 2230 ft 143 kts 146°
2026-05-08 17:33 36.85763 27.04358 2262 ft 139 kts 149°
2026-05-08 17:33 36.84943 27.04992 1898 ft 139 kts 150°
2026-05-08 17:34 36.84123 27.05606 1442 ft 136 kts 152°
2026-05-08 17:34 36.83317 27.06172 1079 ft 133 kts 149°
2026-05-08 17:34 36.82549 27.06742 944 ft 124 kts 150°
2026-05-08 17:34 36.81785 27.07333 829 ft 131 kts 148°
2026-05-08 17:35 36.81000 27.07945 641 ft 134 kts 148°
2026-05-08 17:35 36.80216 27.08545 424 ft 130 kts 148°
2026-05-08 17:35 36.79597 27.09019 408 ft 67 kts 149°
2026-05-08 17:35 36.79223 27.09303 398 ft 52 kts 148°
2026-05-08 17:36 36.78974 27.09493 393 ft 39 kts 148°
2026-05-08 17:36 36.78755 27.09654 391 ft 29 kts 157°
2026-05-08 17:36 36.78599 27.09747 390 ft 12 kts 151°
2026-05-08 17:36 36.78569 27.09809 388 ft 9 kts 53°
2026-05-08 17:37 36.78611 27.09792 389 ft 7 kts 311°
2026-05-08 17:37 36.78682 27.09718 391 ft 19 kts 325°
2026-05-08 17:37 36.78830 27.09601 392 ft 31 kts 328°
2026-05-08 17:37 36.79039 27.09441 391 ft 40 kts 328°
2026-05-08 17:38 36.79292 27.09247 400 ft 45 kts 328°
2026-05-08 17:38 36.79548 27.09050 406 ft 32 kts 329°
2026-05-08 17:38 36.79700 27.08988 408 ft 21 kts 359°
2026-05-08 17:38 36.79813 27.08986 409 ft 16 kts 359°
2026-05-08 17:39 36.79912 27.08978 411 ft 10 kts 355°
2026-05-08 17:39 36.79978 27.08950 410 ft 10 kts 330°
2026-05-08 17:39 36.80028 27.08927 411 ft 4 kts 10°
2026-05-08 17:39 36.80045 27.08944 413 ft 4 kts 54°
2026-05-08 17:40 36.80047 27.08990 413 ft 6 kts 110°
2026-05-08 17:40 36.80012 27.09024 412 ft 7 kts 174°
2026-05-08 17:40 36.79994 27.09016 412 ft 1 kts 217°
2026-05-08 17:40 36.79989 27.09001 408 ft 0 kts 250°